Regional Weather Roundup
Issued by NWS

Home | Current Version | Previous Version | Text Only | Print | Product List | Glossary On
Versions: 1 2 3 4 5 6 7 8 9 10 11 12 13 14 15 16 17 18 19 20 21 22 23 24 25 26 27 28 29 30 31 32 33 34 35 36 37 38 39 40 41 42 43 44 45 46 47 48 49 50
000
ASUS43 KMPX 250010
RWRMN
WEATHER ROUNDUP FOR MINNESOTA
NATIONAL WEATHER SERVICE TWIN CITIES/CHANHASSEN MN
700 PM CDT FRI MAR 24 2017


NOTE: "FAIR" INDICATES FEW OR NO CLOUDS BELOW 12,000 FEET WITH NO
SIGNIFICANT WEATHER AND/OR OBSTRUCTIONS TO VISIBILITY. N/A MEANS
CURRENT SKY AND/OR WEATHER CONDITIONS ARE NOT AVAILABLE.

MNZ060>063-068>070-250100-
   Twin Cities Metro

CITY           SKY/WX    TMP DP  RH WIND       PRES   REMARKS
TWIN CITIES    CLOUDY    42  34  73 NE12      30.13R
6HR MIN TEMP:  42; 6HR MAX TEMP:  45;

ST PAUL        CLOUDY    42  36  79 N14       30.14R
CRYSTAL        CLOUDY    40  32  73 N12       30.13R
BLAINE         CLOUDY    43  37  81 N14       30.14R
LAKEVILLE      CLOUDY    41  36  81 N14G20    30.11R
EDEN PRAIRIE   CLOUDY    42  34  73 N10       30.11R
6HR MIN TEMP:  42; 6HR MAX TEMP:  46;

SOUTH ST PAUL  CLOUDY    43  35  73 NE6       30.12R
LAKE ELMO      CLOUDY    41  36  81 NE8       30.13S
$$
MNZ001>005-007-008-013>017-022>024-027-028-250100-
   Northwest Minnesota

CITY           SKY/WX    TMP DP  RH WIND       PRES   REMARKS
BEMIDJI        CLOUDY    38  29  70 E8        30.17S
HALLOCK        CLOUDY    34  28  80 NW6       30.23R WCI  29
ROSEAU         CLOUDY    37  28  70 CALM      30.21F
WARROAD        CLOUDY    36  27  69 E5        30.22S
THIEF RVR FALL CLEAR    N/A N/A N/A N10       30.21R
CROOKSTON      CLEAR     36  30  80 N12       30.21S
FOSSTON        CLEAR     39  30  70 N7        30.18R
DETROIT LAKES  PTCLDY    41  32  70 E7        30.17R
MOORHEAD       CLEAR     37  34  87 N12       30.20R
PARK RAPIDS    CLOUDY    40  27  59 E7        30.16R
MAHNOMEN       FAIR      39  32  76 N8        30.17R
$$
MNZ006-009>011-018-025>026-250100-
   North Central Minnesota

CITY           SKY/WX    TMP DP  RH WIND       PRES   REMARKS
BAUDETTE       CLOUDY    37  25  61 N10       30.20R
FLAG ISLAND    CLOUDY    34  25  69 N3        30.22S
INTL FALLS     CLOUDY    38  25  59 CALM      30.20R
6HR MIN TEMP:  38; 6HR MAX TEMP:  39;

WASKISH        CLOUDY    39  28  65 E3        30.18S
BIG FORK       CLOUDY    39  28  65 CALM      30.19R
LONGVILLE      CLOUDY    37  30  75 NE3       30.17S
GRAND RAPIDS   CLOUDY    38  31  76 NE3       30.20R
CRANE LAKE     CLOUDY    36  28  75 CALM      30.23R
ORR            CLOUDY    36  25  64 CALM      30.18R
COOK           CLOUDY    36  28  75 CALM      30.20R
WALKER         CLOUDY    37  30  74 E3        30.17S
$$
MNZ012-019>021-037-250100-
   Northeast Minnesota

CITY           SKY/WX    TMP DP  RH WIND       PRES   REMARKS
DULUTH         CLOUDY    35  32  88 E6        30.18R WCI  30
6HR MIN TEMP:  35; 6HR MAX TEMP:  38;

ELY            CLOUDY    36  30  80 CALM      30.19R
HIBBING        CLOUDY    35  32  88 NE3       30.18R
EVELETH        CLOUDY    37  33  84 CALM      30.20R
DULUTH HARBOR  CLOUDY    36  34  93 CALM      30.21R FOG
TWO HARBORS    CLOUDY    37  34  87 E3        30.18R
SILVER BAY     CLOUDY    36  34  93 E5        30.19R
GRAND MARAIS     N/A     36  32  85 E8        30.23R
G MARAIS ARPRT CLOUDY    32  27  80 NE7       30.19R WCI  26
$$
MNZ029>031-032-039>041-046>048-054>057-064-250100-
   West Central Minnesota

CITY           SKY/WX    TMP DP  RH WIND       PRES   REMARKS
FERGUS FALLS   CLOUDY    43  32  65 N8        30.19S
WHEATON        CLOUDY    39  34  81 NW12      30.18S
MORRIS         CLOUDY    43  36  75 E3        30.14R
ALEXANDRIA     CLOUDY    41  33  73 E9        30.15R
ELBOW LAKE     FAIR      42  33  70 NE8       30.15S
WADENA         CLOUDY    41  30  65 NE10      30.15S
GLENWOOD       CLOUDY    39  34  81 NE10      30.15S
APPLETON       PTCLDY    43  36  75 NE7       30.14R
BENSON         PTCLDY    43  32  65 NE7       30.15S
ORTONVILLE     CLOUDY    41  34  75 N13       30.14S
MADISON        PTCLDY    45  39  81 NE7       30.13S
WILLMAR        CLOUDY    41  36  81 NE14      30.15R
$$
MNZ033>034-036-042>043-049>051-058-059-250100-
   Central Minnesota

CITY           SKY/WX    TMP DP  RH WIND       PRES   REMARKS
ST CLOUD       CLOUDY    39  33  79 NE9       30.15R
6HR MIN TEMP:  38; 6HR MAX TEMP:  40;

SAUK CENTRE    CLOUDY    39  32  76 NE8       30.16S
PAYNESVILLE      N/A     39  35  84 NE16G22   30.14S
AITKIN         CLOUDY    41  30  65 N6        30.17R
PINE RIVER     CLOUDY    39  32  75 NE3       30.21R
BRAINERD       CLOUDY    39  31  72 NE5       30.18R
STAPLES        CLOUDY    39  30  70 NE5       30.17R
LONG PRAIRIE   CLOUDY    37  32  81 N6        30.17R
LITTLE FALLS   CLOUDY    37  32  81 NE3       30.18R
LITCHFIELD     CLOUDY    39  36  87 N12       30.14R
BUFFALO        CLOUDY    38  33  79 N10       30.15R
MAPLE LAKE     CLOUDY    39  35  84 NE9       30.16R
HUTCHINSON     CLOUDY    39  35  86 N9G16     30.14R
$$
MNZ037-044-045-052-053-250100-
   East Central Minnesota

CITY           SKY/WX    TMP DP  RH WIND       PRES   REMARKS
PRINCETON      CLOUDY    39  34  81 N12       30.16R
MORA           CLOUDY    37  32  81 NE3       30.17S
CAMBRIDGE      CLOUDY    41  32  70 N6        30.14R
RUSH CITY      CLOUDY    38  32  78 N7        30.16R
MOOSE LAKE     CLOUDY    37  32  81 NE6       30.16R
HINCKLEY       CLOUDY    39  34  81 NE8       30.16R
CLOQUET        CLOUDY    36  32  87 E5        30.17R
MCGREGOR       CLOUDY    37  32  81 NE6       30.18R
$$
MNZ071>073-080-081-089-090-097-098-250100-
   Southwest Minnesota

CITY           SKY/WX    TMP DP  RH WIND       PRES   REMARKS
MONTEVIDEO     CLEAR     39  36  87 NE8       30.15R
GRANITE FALLS  CLOUDY    42  37  81 NE12      30.16R
CANBY          PTCLDY    41  37  86 CALM      30.13S
MARSHALL       CLOUDY    40  35  83 NE12      30.14R
REDWOOD FALLS  CLOUDY    40  33  76 N9G21     30.13R
OLIVIA         CLOUDY    39  34  81 NE13G18   30.13R
PIPESTONE      CLOUDY    37  32  81 NE18      30.08R
WINDOM         CLOUDY    39  36  87 N14G22    30.09S FOG
WORTHINGTON    CLOUDY    38  36  92 NE20      30.09R FOG
JACKSON        CLOUDY    39  36  87 N17       30.08R FOG
TRACY          CLOUDY    38  36  92 N15       30.12R
SLAYTON        CLOUDY    36  35  96 N17       30.11R FOG
$$
MNZ065>067-074>077-082>085-091>093-250100-
   South Central Minnesota

CITY           SKY/WX    TMP DP  RH WIND       PRES   REMARKS
MANKATO        CLOUDY    42  37  82 N13       30.10R
NEW ULM        CLOUDY    39  34  81 NE12      30.12R
ST JAMES       CLOUDY    41  37  87 N13       30.11R
FAIRMONT       LGT RAIN  42  38  85 N10       30.07R
GLENCOE        CLOUDY    40  37  91 N6        30.12R
FARIBAULT      CLOUDY    43  37  81 N9        30.10R
OWATONNA       CLOUDY    43  36  75 NE12G17   30.08R
WASECA         CLOUDY    41  36  81 NE16      30.09R
ALBERT LEA     CLOUDY    39  39 100 NE9G17    30.07R FOG
$$
MNZ078>079-086>088-094>096-250100-
   Southeast Minnesota

CITY           SKY/WX    TMP DP  RH WIND       PRES   REMARKS
ROCHESTER      CLOUDY    39  37  92 NE15      30.06R
6HR MIN TEMP:  39; 6HR MAX TEMP:  40; 6HR PCP: TRACE;

RED WING       CLOUDY    43  36  75 NE5       30.11R
STANTON        CLOUDY    43  37  78 NE12      30.09R
DODGE CENTER   CLOUDY    39  37  93 NE10      30.06R FOG
WINONA         CLOUDY    41  36  81 NE5       30.10R
AUSTIN         CLOUDY    39  36  87 NE13G20   30.06R
PRESTON        CLOUDY    38  36  92 NE13G18   30.06R
$$
ABBREVIATIONS USED IN REMARKS
   TC - TEMPERATURES IN CELSIUS
  WCI - WIND CHILL INDEX
   HX - HEAT INDEX
  VSB - VISIBILITY
$$




USA.gov is the U.S. government's official web portal to all federal, state and local government web resources and services.